CW3066 Weather Reports


time (UTC)temp
F
wind
direction
speed
knots
gust
knots
rain 1hr
in
rain 24hr
in
rain mn
in
humidity
%
barometer
mb
20260903043005 76 350 0.0 0.0 0.00 0.00 0.00 88 1010.4
20260903041506 76 350 0.0 0.0 0.00 0.00 0.00 87 1010.5
20260903040008 77 350 0.0 0.0 0.00 0.00 0.00 86 1010.5
20260903034505 77 350 0.0 0.0 0.00 0.00 0.00 84 1010.5
20260903033004 78 350 0.0 0.0 0.00 0.00 0.00 84 1010.7
20260903031504 78 350 0.0 0.0 0.00 0.00 0.00 83 1010.7
20260903030006 78 350 0.0 0.0 0.00 0.00 0.00 83 1010.7
20260903024502 79 350 0.0 0.0 0.00 0.00 0.00 81 1010.7
20260903023003 79 350 0.0 0.0 0.00 0.00 0.00 80 1010.7
20260903021502 79 350 0.0 0.0 0.00 0.00 0.00 79 1010.8
20260903020004 80 350 0.0 0.0 0.00 0.00 0.00 77 1010.7
20260903014603 80 350 0.0 0.0 0.00 0.00 0.00 74 1010.8
20260903013100 81 350 0.0 0.0 0.00 0.00 0.00 71 1010.7
20260903011606 82 350 0.0 0.0 0.00 0.00 0.00 70 1010.3
20260903010059 83 350 0.0 0.0 0.00 0.00 0.00 67 1010.3
20260903004558 84 350 0.0 0.0 0.00 0.00 0.00 64 1010.2
20260903003058 86 350 0.0 0.0 0.00 0.00 0.00 60 1010.2
20260903001557 88 350 0.0 0.0 0.00 0.00 0.00 56 1010.3
20260903000059 89 350 0.0 0.0 0.00 0.00 0.00 51 1010.3
20260902234605 92 350 0.0 0.0 0.00 0.00 0.00 46 1010.3
20260902233056 93 350 0.0 0.0 0.00 0.00 0.00 40 1010.3
20260902231600 94 350 0.0 0.0 0.00 0.00 0.00 38 1010.3
20260902230054 94 350 0.0 0.0 0.00 0.00 0.00 37 1010.4
20260902224553 94 350 0.0 2.6 0.00 0.00 0.00 37 1010.4
20260902223058 95 298 0.0 2.6 0.00 0.00 0.00 36 1010.6
20260902221552 95 355 0.0 3.5 0.00 0.00 0.00 36 1010.7
20260902220051 95 351 0.0 3.5 0.00 0.00 0.00 38 1010.7
20260902214550 95 350 0.0 3.5 0.00 0.00 0.00 37 1010.7
20260902213049 95 346 0.0 2.6 0.00 0.00 0.00 37 1010.8
20260902211550 96 350 0.0 1.7 0.00 0.00 0.00 38 1010.8
20260902210048 96 355 0.0 2.6 0.00 0.00 0.00 37 1010.8
20260902204547 95 351 0.0 1.7 0.00 0.00 0.00 38 1010.9
20260902203046 95 350 0.0 1.7 0.00 0.00 0.00 38 1011.0
20260902201556 95 350 0.0 3.5 0.00 0.00 0.00 38 1011.3
20260902200044 96 218 0.0 3.5 0.00 0.00 0.00 37 1011.3
20260902194541 95 348 0.0 1.7 0.00 0.00 0.00 35 1011.5
20260902193040 95 355 0.0 1.7 0.00 0.00 0.00 39 1011.7
20260902191540 95 355 0.0 1.7 0.00 0.00 0.00 39 1011.8
20260902190039 95 355 0.0 1.7 0.00 0.00 0.00 39 1011.9
20260902184537 94 348 0.0 3.5 0.00 0.00 0.00 38 1011.9
20260902183036 94 350 0.0 3.5 0.00 0.00 0.00 42 1011.9
20260902181549 94 355 0.0 3.5 0.00 0.00 0.00 41 1012.1
20260902180035 94 355 0.0 2.6 0.00 0.00 0.00 43 1012.3
20260902174532 94 355 0.0 3.5 0.00 0.00 0.00 42 1012.4
20260902173041 93 350 0.0 2.6 0.00 0.00 0.00 45 1012.6
20260902171530 92 355 0.0 2.6 0.00 0.00 0.00 44 1012.8
20260902170029 93 355 0.0 2.6 0.00 0.00 0.00 45 1012.9
20260902164527 93 355 0.0 3.5 0.00 0.00 0.00 45 1013.0
20260902163026 92 355 0.0 1.7 0.00 0.00 0.00 47 1013.1
20260902161526 92 350 0.0 2.6 0.00 0.00 0.00 47 1013.2
20260902160024 91 355 0.0 0.9 0.00 0.00 0.00 48 1013.4
20260902154526 91 355 0.0 1.7 0.00 0.00 0.00 50 1013.3
20260902153021 91 350 0.9 2.6 0.00 0.00 0.00 52 1013.3
20260902151520 90 355 0.0 0.9 0.00 0.00 0.00 52 1013.1
20260902150018 89 350 0.0 0.9 0.00 0.00 0.00 56 1013.0
20260902144513 87 350 0.0 1.7 0.00 0.00 0.00 61 1013.0
20260902143008 85 345 0.0 0.0 0.00 0.00 0.00 63 1013.2
20260902141505 84 345 0.0 1.7 0.00 0.00 0.00 67 1013.0
20260902134556 78 350 0.0 0.0 0.00 0.00 0.00 81 1013.0
20260902133104 76 350 0.0 0.0 0.00 0.00 0.00 93 1013.0
20260902131552 74 350 0.0 0.0 0.00 0.00 0.00 98 1012.9
20260902130053 74 350 0.0 0.0 0.00 0.00 0.00 100 1013.0
20260902124549 73 350 0.0 0.0 0.00 0.00 0.00 100 1013.0
20260902123053 72 350 0.0 0.0 0.00 0.00 0.00 100 1012.9
20260902121547 71 350 0.0 0.0 0.00 0.00 0.00 100 1012.7
20260902120048 71 350 0.0 0.0 0.00 0.00 0.00 100 1012.5
20260902114552 70 350 0.0 0.0 0.00 0.00 0.00 99 1012.4
20260902113045 70 350 0.0 0.0 0.00 0.00 0.00 99 1012.3
20260902111547 70 350 0.0 0.0 0.00 0.00 0.00 99 1012.1
20260902110058 71 350 0.0 0.0 0.00 0.00 0.00 99 1012.1
20260902104541 70 350 0.0 0.0 0.00 0.00 0.00 98 1011.9
20260902103019 70 350 0.0 0.0 0.00 0.00 0.00 98 1012.0
20260902064525 73 350 0.0 0.0 0.00 0.00 0.00 95 1011.4
20260902063025 73 350 0.0 0.0 0.00 0.00 0.00 95 1011.7
20260902061512 73 350 0.0 0.0 0.00 0.00 0.00 95 1011.7
20260902060010 74 350 0.0 0.0 0.00 0.00 0.00 94 1011.7
20260902054518 74 350 0.0 0.0 0.00 0.00 0.00 94 1011.6
20260902053017 74 350 0.0 0.0 0.00 0.00 0.00 94 1011.6
20260902051506 74 350 0.0 0.0 0.00 0.00 0.00 93 1011.5
20260902050007 75 350 0.0 0.0 0.00 0.00 0.00 93 1011.5
20260902044503 75 350 0.0 0.0 0.00 0.00 0.00 93 1011.4